Location: Carnoy
(49.9849°N, 2.7558°E)
Time: 12:15:05
(UTC+00:00)

Cosmos 1328 - Pass Details

Date: 24 January 2020
Orbit: 535 x 549 km, 82.5° (Epoch: 17 February)

Event Time Altitude Azimuth Distance (km) Brightness Sun altitude
Rises 17:45:31 0° 167° (SSE) 2,710 7.4 -12.2°
Reaches altitude 10° 17:47:47 10° 159° (SSE) 1,821 6.4 -12.5°
Maximum altitude 17:51:28 36° 92° (E) 877 4.3 -13.1°
Drops below altitude 10° 17:55:11 10° 25° (NNE) 1,832 6.1 -13.7°
Enters shadow 17:55:13 10° 25° (NNE) 1,850 6.1 -13.7°
